When you browse on this site, cookies collect data to enhance your experience and personalize the content and advertising you see.
Visit our Privacy Policy to learn more. By continuing to use the site, you agree to this use of cookies and data.
  • en Belgique
  • Liste des pays
  • À 7 jours
  • Température de l'eau
  • Carte satellitaire
  • Carte météo
  • Widgets météo
  • user-avatar
    Se connecter

    Météo par heure à Icatu

    Ce jour, 19 Décembre, Mercredi

    Heure Température Précipitation Vent Pression Humidité
    00:00 +26°C° 0.7 mm 2 m/s 757 mmHg 93%
    01:00 +26°C° 0.7 mm 2 m/s 756 mmHg 93%
    02:00 +26°C° 0.7 mm 2 m/s 756 mmHg 93%
    03:00 +26°C° 0.7 mm 2 m/s 756 mmHg 93%
    04:00 +26°C° 0.7 mm 2 m/s 756 mmHg 93%
    05:00 +26°C° 0.7 mm 2 m/s 756 mmHg 93%
    06:00 +26°C° 0.7 mm 3 m/s 756 mmHg 94%
    07:00 +27°C° 0.7 mm 3 m/s 756 mmHg 89%
    08:00 +28°C° 0.7 mm 3 m/s 757 mmHg 85%
    09:00 +29°C° 0.7 mm 4 m/s 757 mmHg 80%
    10:00 +30°C° 0.4 mm 4 m/s 757 mmHg 75%
    11:00 +32°C° 0.4 mm 4 m/s 757 mmHg 70%
    12:00 +34°C° 0.4 mm 4 m/s 757 mmHg 64%
    13:00 +33°C° 0.3 mm 3 m/s 756 mmHg 65%
    14:00 +33°C° 0.3 mm 3 m/s 755 mmHg 66%
    15:00 +33°C° 0.3 mm 3 m/s 755 mmHg 67%
    16:00 +31°C° 0.5 mm 3 m/s 755 mmHg 73%
    17:00 +30°C° 0.5 mm 3 m/s 755 mmHg 80%
    18:00 +28°C° 0.5 mm 3 m/s 755 mmHg 86%
    19:00 +28°C° 0.6 mm 3 m/s 755 mmHg 87%
    20:00 +28°C° 0.6 mm 3 m/s 756 mmHg 88%
    21:00 +27°C° 0.6 mm 3 m/s 756 mmHg 90%
    22:00 +27°C° 0.7 mm 3 m/s 756 mmHg 91%
    23:00 +27°C° 0.7 mm 3 m/s 756 mmHg 92%

    Demain, 20 Décembre, Jeudi

    Heure Température Précipitation Vent Pression Humidité
    00:00 +27°C° 0.7 mm 3 m/s 756 mmHg 93%
    01:00 +26°C° 0.5 mm 3 m/s 755 mmHg 93%
    02:00 +26°C° 0.5 mm 3 m/s 755 mmHg 93%
    03:00 +26°C° 0.5 mm 3 m/s 754 mmHg 93%
    04:00 +26°C° 0.1 mm 2 m/s 755 mmHg 94%
    05:00 +26°C° 0.1 mm 2 m/s 755 mmHg 94%
    06:00 +26°C° 0.1 mm 2 m/s 755 mmHg 94%
    07:00 +27°C° 0.1 mm 3 m/s 756 mmHg 89%
    08:00 +29°C° 0.1 mm 3 m/s 756 mmHg 85%
    09:00 +30°C° 0.1 mm 3 m/s 757 mmHg 80%
    10:00 +30°C° 0.7 mm 3 m/s 757 mmHg 79%
    11:00 +30°C° 0.7 mm 3 m/s 756 mmHg 78%
    12:00 +31°C° 0.7 mm 3 m/s 756 mmHg 78%
    13:00 +30°C° 1.2 mm 3 m/s 756 mmHg 80%
    14:00 +30°C° 1.2 mm 3 m/s 755 mmHg 82%
    15:00 +29°C° 1.2 mm 3 m/s 754 mmHg 84%
    16:00 +29°C° 0.6 mm 3 m/s 754 mmHg 86%
    17:00 +28°C° 0.6 mm 3 m/s 755 mmHg 88%
    18:00 +27°C° 0.6 mm 2 m/s 755 mmHg 91%
    19:00 +27°C° 1.2 mm 3 m/s 755 mmHg 91%
    20:00 +27°C° 1.2 mm 3 m/s 756 mmHg 92%
    21:00 +26°C° 1.2 mm 3 m/s 756 mmHg 92%
    22:00 +26°C° 1.4 mm 3 m/s 756 mmHg 92%
    23:00 +26°C° 1.4 mm 3 m/s 756 mmHg 93%

    Après-demain, 21 Décembre, Vendredi

    Heure Température Précipitation Vent Pression Humidité
    00:00 +26°C° 1.4 mm 3 m/s 756 mmHg 93%
    01:00 +26°C° 1 mm 3 m/s 755 mmHg 94%
    02:00 +26°C° 1 mm 2 m/s 755 mmHg 94%
    03:00 +26°C° 1 mm 2 m/s 754 mmHg 94%
    04:00 +26°C° 0.2 mm 2 m/s 755 mmHg 94%
    05:00 +26°C° 0.2 mm 2 m/s 755 mmHg 95%
    06:00 +26°C° 0.2 mm 2 m/s 755 mmHg 95%
    07:00 +27°C° 0.7 mm 2 m/s 756 mmHg 91%
    08:00 +28°C° 0.7 mm 3 m/s 756 mmHg 86%
    09:00 +29°C° 0.7 mm 3 m/s 757 mmHg 82%
    10:00 +30°C° 0.2 mm 3 m/s 756 mmHg 76%
    11:00 +31°C° 0.2 mm 3 m/s 756 mmHg 70%
    12:00 +33°C° 0.2 mm 3 m/s 756 mmHg 65%
    13:00 +33°C° 1 mm 3 m/s 755 mmHg 69%
    14:00 +31°C° 1 mm 3 m/s 754 mmHg 73%
    15:00 +31°C° 1 mm 3 m/s 753 mmHg 78%
    16:00 +30°C° 0.1 mm 3 m/s 754 mmHg 81%
    17:00 +29°C° 0.1 mm 3 m/s 754 mmHg 84%
    18:00 +28°C° 0.1 mm 3 m/s 754 mmHg 87%
    19:00 +28°C° 0.3 mm 3 m/s 755 mmHg 88%
    20:00 +27°C° 0.3 mm 3 m/s 755 mmHg 89%
    21:00 +27°C° 0.3 mm 3 m/s 756 mmHg 90%
    22:00 +27°C° 0.8 mm 3 m/s 756 mmHg 90%
    23:00 +27°C° 0.8 mm 3 m/s 756 mmHg 90%

    22 Décembre, Samedi

    Heure Température Précipitation Vent Pression Humidité
    00:00 +26°C° 0.8 mm 3 m/s 755 mmHg 91%
    01:00 +26°C° 0 mm 3 m/s 755 mmHg 91%
    02:00 +26°C° 0 mm 2 m/s 754 mmHg 91%
    03:00 +26°C° 0 mm 2 m/s 754 mmHg 91%
    04:00 +26°C° 0.1 mm 2 m/s 754 mmHg 91%
    05:00 +26°C° 0.1 mm 2 m/s 754 mmHg 92%
    06:00 +26°C° 0.1 mm 2 m/s 755 mmHg 92%
    07:00 +27°C° 0.4 mm 2 m/s 755 mmHg 87%
    08:00 +29°C° 0.4 mm 3 m/s 756 mmHg 83%
    09:00 +30°C° 0.4 mm 3 m/s 756 mmHg 78%
    10:00 +30°C° 0.6 mm 3 m/s 756 mmHg 78%
    11:00 +30°C° 0.6 mm 3 m/s 756 mmHg 77%
    12:00 +31°C° 0.6 mm 3 m/s 755 mmHg 77%
    13:00 +30°C° 1.5 mm 3 m/s 755 mmHg 80%
    14:00 +30°C° 1.5 mm 3 m/s 754 mmHg 83%
    15:00 +29°C° 1.5 mm 3 m/s 754 mmHg 86%
    16:00 +28°C° 1.3 mm 3 m/s 754 mmHg 88%
    17:00 +27°C° 1.3 mm 3 m/s 754 mmHg 90%
    18:00 +27°C° 1.3 mm 3 m/s 755 mmHg 92%
    19:00 +27°C° 0.6 mm 3 m/s 755 mmHg 93%
    20:00 +26°C° 0.6 mm 3 m/s 755 mmHg 93%
    21:00 +26°C° 0.6 mm 3 m/s 756 mmHg 94%
    22:00 +26°C° 0.1 mm 3 m/s 756 mmHg 94%
    23:00 +26°C° 0.1 mm 2 m/s 755 mmHg 94%

    23 Décembre, Dimanche

    Heure Température Précipitation Vent Pression Humidité
    00:00 +26°C° 0.1 mm 2 m/s 755 mmHg 94%
    01:00 +26°C° 0.5 mm 2 m/s 755 mmHg 94%
    02:00 +26°C° 0.5 mm 2 m/s 754 mmHg 94%
    03:00 +26°C° 0.5 mm 2 m/s 754 mmHg 95%
    04:00 +26°C° 1.1 mm 2 m/s 754 mmHg 94%
    05:00 +26°C° 1.1 mm 2 m/s 755 mmHg 94%
    06:00 +26°C° 1.1 mm 1 m/s 755 mmHg 94%
    07:00 +27°C° 0.9 mm 2 m/s 756 mmHg 92%
    08:00 +27°C° 0.9 mm 2 m/s 756 mmHg 89%
    09:00 +28°C° 0.9 mm 2 m/s 757 mmHg 87%
    10:00 +29°C° 1 mm 2 m/s 756 mmHg 83%
    11:00 +29°C° 1 mm 2 m/s 756 mmHg 79%
    12:00 +30°C° 1 mm 2 m/s 756 mmHg 75%
    13:00 +30°C° 1 mm 2 m/s 756 mmHg 78%
    14:00 +30°C° 1 mm 2 m/s 755 mmHg 80%
    15:00 +29°C° 1 mm 2 m/s 755 mmHg 82%
    16:00 +28°C° 1.2 mm 2 m/s 755 mmHg 85%
    17:00 +27°C° 1.2 mm 2 m/s 755 mmHg 89%
    18:00 +26°C° 1.2 mm 2 m/s 755 mmHg 92%
    19:00 +26°C° 0.6 mm 2 m/s 756 mmHg 93%
    20:00 +26°C° 0.6 mm 2 m/s 756 mmHg 93%
    21:00 +26°C° 0.6 mm 2 m/s 757 mmHg 94%
    22:00 +26°C° 0.3 mm 2 m/s 756 mmHg 94%
    23:00 +26°C° 0.3 mm 2 m/s 756 mmHg 94%

    24 Décembre, Lundi

    Heure Température Précipitation Vent Pression Humidité
    00:00 +25°C° 0.3 mm 2 m/s 756 mmHg 95%
    01:00 +25°C° 0.9 mm 2 m/s 756 mmHg 95%
    02:00 +25°C° 0.9 mm 2 m/s 755 mmHg 95%
    03:00 +25°C° 0.9 mm 2 m/s 755 mmHg 95%
    04:00 +25°C° 0.7 mm 2 m/s 755 mmHg 95%
    05:00 +25°C° 0.7 mm 2 m/s 756 mmHg 95%
    06:00 +25°C° 0.7 mm 2 m/s 756 mmHg 95%
    07:00 +25°C° 0.8 mm 2 m/s 756 mmHg 95%
    08:00 +26°C° 0.8 mm 2 m/s 757 mmHg 94%
    09:00 +26°C° 0.8 mm 2 m/s 757 mmHg 94%
    10:00 +26°C° 0.4 mm 2 m/s 757 mmHg 92%
    11:00 +27°C° 0.4 mm 2 m/s 757 mmHg 90%
    12:00 +27°C° 0.4 mm 2 m/s 757 mmHg 89%
    13:00 +28°C° 0.1 mm 2 m/s 756 mmHg 85%
    14:00 +28°C° 0.1 mm 2 m/s 755 mmHg 82%
    15:00 +28°C° 0.1 mm 2 m/s 755 mmHg 78%
    16:00 +28°C° 0 mm 1 m/s 755 mmHg 82%
    17:00 +27°C° 0 mm 1 m/s 755 mmHg 85%
    18:00 +26°C° 0 mm 1 m/s 755 mmHg 88%
    19:00 +26°C° 0.1 mm 1 m/s 755 mmHg 89%
    20:00 +26°C° 0.1 mm 1 m/s 755 mmHg 90%
    21:00 +26°C° 0.1 mm 1 m/s 756 mmHg 91%
    22:00 +25°C° 0.1 mm 1 m/s 756 mmHg 92%
    23:00 +25°C° 0.1 mm 1 m/s 755 mmHg 92%
    Voir plus